Location: Columbia
(38.9520°N, 92.3340°W)
Time: 03:38:01
(UTC-05:00)

Cosmos 1603 - Visible Passes

Search period start: 28 August 2016 00:00
Search period end: 07 September 2016 00:00
Orbit: 830 x 861 km, 71.0° (Epoch: 27 August)

Date Brightness Start Highest point End Pass type
(mag) Time Alt. Az. Time Alt. Az. Time Alt. Az.
28 Aug 6.2 01:47:15 15° ENE 01:47:15 15° ENE 01:48:24 10° NE visible
28 Aug 4.8 03:29:09 36° NNW 03:29:09 36° NNW 03:33:05 10° N visible
29 Aug 6.3 01:33:47 13° NE 01:33:47 13° NE 01:34:26 10° NE visible
29 Aug 5.0 03:15:41 33° NNW 03:15:41 33° NNW 03:19:12 10° N visible
30 Aug 6.4 01:20:18 11° NE 01:20:18 11° NE 01:20:29 10° NE visible
30 Aug 5.2 03:02:11 30° N 03:02:11 30° N 03:05:20 10° N visible
31 Aug 5.4 02:48:40 27° N 02:48:40 27° N 02:51:27 10° NNE visible
01 Sep 5.6 02:35:08 25° N 02:35:08 25° N 02:37:34 10° NNE visible
02 Sep 5.8 02:21:35 22° N 02:21:35 22° N 02:23:40 10° NNE visible
03 Sep 6.0 02:08:00 20° N 02:08:00 20° N 02:09:48 10° NNE visible
04 Sep 6.1 01:54:24 18° N 01:54:24 18° N 01:55:54 10° NNE visible
05 Sep 6.2 01:40:48 17° N 01:40:48 17° N 01:42:01 10° NNE visible
06 Sep 6.3 01:27:09 15° NNE 01:27:09 15° NNE 01:28:07 10° NNE visible
